Location: Hickory_CSC
(35.7330°N, 81.3330°W)
Time: 14:00:41
(UTC-05:00)

Cosmos 1356 Rocket - Visible Passes

Search period start: 02 March 2015 00:00
Search period end: 12 March 2015 01:00
Orbit: 546 x 605 km, 81.2° (Epoch: 01 March)

Date Brightness Start Highest point End Pass type
(mag) Time Alt. Az. Time Alt. Az. Time Alt. Az.
03 Mar6.521:06:08N21:06:08N20:56:48SWvisible
04 Mar 4.4 19:24:19 10° SSE 19:27:43 25° E 19:31:09 10° NE visible
04 Mar 5.9 21:01:40 10° WSW 21:04:51 20° WNW 21:07:54 10° NNW visible
05 Mar 4.0 19:27:41 10° SSE 19:31:28 35° E 19:35:16 10° NNE visible
05 Mar 6.4 21:06:20 10° WSW 21:08:47 15° WNW 21:11:02 10° NW visible
06 Mar 3.5 19:31:12 10° S 19:35:14 49° E 19:39:14 10° NNE visible
06 Mar 6.8 21:11:54 10° W 21:12:45 10° WNW 21:13:20 10° WNW visible
07 Mar 3.3 19:34:51 10° S 19:39:00 72° E 19:43:07 10° NNE visible
08 Mar 6.7 06:42:22 10° NE 06:44:13 13° ENE 06:46:17 10° ESE visible
08 Mar 3.5 20:38:38 10° SSW 20:42:47 79° W 20:46:54 10° N visible
09 Mar 6.4 06:45:22 10° NNE 06:48:08 18° ENE 06:51:03 10° ESE visible
09 Mar 4.2 20:42:31 10° SSW 20:46:35 54° W 20:50:37 10° N visible
10 Mar 5.9 06:48:42 10° NNE 06:52:02 25° ENE 06:55:27 10° SE visible
10 Mar 5.0 20:46:33 10° SSW 20:50:25 37° WNW 20:54:13 10° N visible
11 Mar 5.2 06:52:10 10° N 06:55:53 35° ENE 06:59:38 10° SE visible
11 Mar 5.7 20:50:43 10° SW 20:54:15 27° WNW 20:57:43 10° NNW visible
